Location: Observatory
(52.1446°N, 0.4624°W)
Time: 22:36:30
(UTC+00:00)

ISS - Pass Details

Date: 11 January 2018
Orbit: 402 x 407 km, 51.6° (Epoch: 22 January)

Event Time Altitude Azimuth Distance (km) Brightness Sun altitude
Exits shadow 06:13:48 31° 234° (SW) 743 -2.9 -16.4°
Maximum altitude 06:14:28 35° 206° (SSW) 684 -2.8 -16.3°
Drops below altitude 10° 06:17:30 10° 139° (SE) 1,465 -0.2 -15.9°
Sets 06:19:40 0° 130° (SE) 2,323 1.3 -15.6°
